Timeline UpdatesTrip UpdatesNews PostsPvt PostsTravel TipsAdmin PostsConv PostsFollowed PostsChat RequestsBlog PostsPNR Posts

Disclaimer
Search
 
 
Wed Sep 3, 2014 12:32:28 ISTHomeTrainsΣChainsAtlasPNRForumGalleryNewsFAQTripsMembersLoginFeedback
No Recent News for this Train
Other Trains in the News **new
Latest...
Will be short terminated at Sambalpur & will run back as 58132 Puri - Rourkela Passenger from Sambalpur to Rourkela on 11/6/14 #1126575
Sat Jun 07, 2014 (12:57PM)
⇐ Return Journey: Train# 58132

58131/Rourkela-Puri Passenger (UnReserved)

OLD Time-Table. Click here to UPDATE TT
Sep 11 2013 (10:38PM)
Change Departure Station:
Change Arrival Station:
Post a Train Travel TipPost a Train Travel Tip **new
Post a Comment/Question/Picture/VideoPost a Comment/Question/Picture/Video
Pantry/Catering
✕ NO Pantry Car
✕ NO Catering
Loco/Rake Reversals
SBP/Sambalpur Junction (3);
RSA - Rake Sharing
Rake/Coach Composition
Loco
BNDM-WDM-3A. Ref: Entry# 779885
News    PNR    Forum    Time-Table    Availability    Fare Chart    Map    Arr/Dep History    Trips    Gallery    ΣChains    X/O    Timeline    
Travel Time: 3h 50m    19 halts    Distance: 150 km    Avg Speed: 39 km/hr
Type: Passenger
Zone: SER/South Eastern
Departs @ 08:00
Platform# 3
SMTWTFS
Rourkela Junction/ROU 
Arrives @ 11:50
Platform# ???
SMTWTFS
Sambalpur Junction/SBP 

19 halts. 22 intermediate Stations between Rourkela Junction and Sambalpur Junction

Show ALL intermediate Stations  

#CodeStation NameX/OArrivesAvgDepartsAvgHaltPFDay#KmSpeedElevZoneAddress
1ROU»Rourkela Junction (5)»  -08:00-310.045198mSERRourkela, Odisha
2PPOPanposh (2)X  08:08-08:09-1m--16.050190mSERRourkela, Odisha
3KLGKalunga  08:18-08:19-1m--113.553203mSERSundargarh, Odisha
4KXNKanshbahal  08:27-08:28-1m--120.655220mSERSundargarh, Odisha
5GPRaj Gangpur (3)  08:38-08:39-1m--129.849237mSERRaj Ganpur, Odisha
6SXNSonakhanX  08:48-08:49-1m--137.148249mSERSundargarh, Odisha
7SOGRSograO  08:57-08:58-1m--143.540293mSERState Highway 10, Odisha
8GPHGarpos (3)X  09:05-09:06-1m--148.358278mSERSundargarh, Odisha
9TGMTangarmunda  09:14-09:15-1m--156.063264mSERSundargarh, Odisha
10BMBBamra (3)  09:23-09:24-1m--164.458259mSERBamra PH : 06642-229268, Odisha
11DIHDharuadihiX  09:34-09:35-1m--174.047258mSERSH 24, Odisha
12BEHBagdihi (3)  09:43-09:44-1m--180.349254mSERState Highway 24 PH: 06640-286227, Odisha
13PNPLPanpaliX  09:52-09:53-1m--186.941258mSERJharsuguda, Odisha
14DTVDhutra  10:01-10:02-1m--192.318240mSERJharsuguda, Odisha
15JSGJharsuguda Junction (5)  10:30-10:35-5m11100.931236mSERJharsuguda, Odisha
16BXQBrundamal  10:48-10:50-2m--1107.667209mECoRJharsuguda, Odisha
17LPGLapanga  10:58-11:00-2m--1116.565215mECoRJharsuguda, Odisha
18RGLRengali  11:10-11:12-2m--1127.371208mECoRState Highway 10, Odisha
19SSNSason  11:20-11:22-2m--1136.838171mECoRState Highway 10, Odisha
20SBPDSambalpur RoadX  11:40-11:42-2m21148.111161mECoRSambalpur, Odisha
21SBP•Sambalpur Junction (3)•11:50-12:10-20m--1149.618159mECoRSambalpur, Odisha
22SBPYSambalpur City  12:30-12:32-2m--1155.667161mECoRSambalpur, Odisha
23MANEManeswarX  12:40-12:42-2m--1164.492160mECoROrissa, Odisha
24HATBHatibari  12:50-12:52-2m--1176.788189mECoROrissa, Odisha
25JUJAJujumura  13:00-13:02-2m--1188.4130217mECoRSambalpur, Odisha
26CHARCharmalX  13:10-13:12-2m--1205.769160mECoROrissa, Odisha
27RAIRRairakhol  13:25-13:27-2m--1220.773144mECoRSH 24, Odisha
28BAMRBamur  13:40-13:42-2m--1236.573181mECoRBamur, Odisha
29SRGPSaragipali  13:50-13:52-2m--1246.2105197mECoROrissa, Odisha
30HNPAHandapa  14:00-14:02-2m--1260.352257mECoRNational Highway 42, Odisha
31BONABoinda  14:10-14:12-2m--1267.2116292mECoRState Highway 62, Odisha
32JRPDJarapada  14:20-14:22-2m--1282.734205mECoRNational Highway 42, Odisha
33KPJGKerejangaX  14:40-14:42-2m--1292.912164mECoRNational Highway 42, Odisha
34ANGLAngul (2)X  15:50-16:00-10m--1306.181120mECoRAngul District, Odisha
35TLHDTalcher Road  16:09-16:10-1m--1318.42473mECoRBhogabereni, Odisha
36TLHRTalcher  16:25-16:50-25m--1324.32486mECoRSub-division Angul district, Odisha
37BDPKBurhapanka  17:17-17:18-1m--1335.05779mECoROrissa, Odisha
38MRDLMeramandolil  17:26-17:27-1m--1342.6-73mECoROrissa, Odisha
39NBTNayabagirthipur  17:30-17:31-1m--1351.42859mECoRDhenkanal, Odisha
40HNDHindol Road  17:41-17:42-1m--1356.1-64mECoROrissa, Odisha
41MHDBMahadia Ph  17:43-17:44-1m--1360.82466mECoRMahadia, Odisha
42SSPRSadashibapur  17:55-17:56-1m--1365.3-54mECoROrissa, Odisha
43DNDLDandi MalX  17:57-17:58-1m--1369.02171mECoRIndipur, Odisha
44DNKLDhenkanal (2)  18:19-18:20-1m--1376.55859mECoRDhenkanal, Odisha
45SCPRShyama Charanpur Halt  18:25-18:26-1m--1381.31894mECoRDhenkanal, Odisha
46JRZJoranda RoadX  18:37-18:38-1m--1384.68162mECoRDhenkanal, Odisha
47RJGRRajathagarh  18:47-18:48-1m--1396.73758mECoRRaj Athgarh, Odisha
48MZYMachapur  18:53-18:54-1m--1399.84648mECoRKapilash Rd, Odisha
49GJTAGurudijhatia  19:02-19:03-1m--1406.014433mECoRGurudijhat, Odisha
50BDPGBada Padagaon  19:05-19:06-1m--1410.82931mECoRCuttack, Odisha
51CBTCharbatia  19:14-19:15-1m--1414.74235mECoRCuttack, Odisha
52SQQSalagaonX  19:22-19:23-1m--1419.61129mECoRCuttack, Odisha
53NRGNergundi  19:44-19:45-1m--1423.45026mECoRCuttack District, Odisha
54MACRManguli Chowdwar  19:48-19:49-1m--1425.93525mECoROrissa, Odisha
55KNPRKendrapara Road  19:56-19:57-1m--1429.93129mECoRKendrapara Road, Odisha
56CTCCuttack Junction (5)  20:05-20:10-5m--1434.0828mECoRCuttack, Odisha
57KTJIKatha Jori  20:22-20:23-1m--1435.52428mECoRCuttack, Odisha
58GBKGopalpur BalkudaX  20:30-20:31-1m--1438.32728mECoRGopalpur, Odisha
59BRAGBarang  20:48-20:49-1m--1446.1-27mECoRDist - Cuttack, Odisha
60PTABPatia P.H.X  20:50-20:51-1m--1452.01630mECoRBhubaneshwar, Odisha
61MCSMancheswar  21:02-21:03-1m--1454.9-27mECoRMancheswar, Odisha
62BNBHBani Bihar (2)X  21:04-21:05-1m--1458.32138mECoRBhubaneswar, Odisha
63BBSBhubaneswar (4)  21:15-21:20-5m41461.76740mECoRBhubaneshwar, Odisha
64LGTRLingaraj Temple RoadX  21:24-21:25-1m--1466.27039mECoRBhubaneswar, Odisha
65RTNRetangX  21:31-21:32-1m--1473.33419mECoRKhurdha, Odisha
66KURKhurda Road Junction (7)X  21:45-21:50-5m--1480.71425mECoRKhordha, Odisha
67HPGMHaripur Gram  22:01-22:02-1m--1483.34022mECoRKhordha, Odisha
68MWQMotari HaltX  22:10-22:11-1m--1488.75212mECoRMotari, Odisha
69KASRKanas RoadX  22:15-22:16-1m--1492.2209mECoRKhordha, Odisha
70DEGDelang  22:27-22:28-1m--1495.9379mECoRKhordha, Odisha
71BRSTBir PurushottampurX  22:39-22:40-1m--1502.64812mECoRSatasankha, Odisha
72SILSakhi Gopal (3)X  22:47-22:48-1m--1508.19110mECoRPuri, Odisha
73JKDPJankidaipur  22:52-22:53-1m--1514.24613mECoRChandanpur, Odisha
74MLTMalatipatpur (1)  22:57-22:58-1m11517.2615mECoRPuri, Odisha
75PURIPuri (5)  00:15----2524.6-12mECoRPuri, Odisha
Scroll to Top
Scroll to Bottom